Location: Newark
(49.4900°N, 20.6656°E)
Time: 17:20:07
(UTC+00:00)

STARLINK-1666 - Pass Details

Date: 24 September 2020
Orbit: 378 x 381 km, 53.0° (Epoch: 30 October)

Event Time Altitude Azimuth Distance (km) Brightness Sun altitude
Exits shadow 03:08:46 17° 299° (WNW) 1,120 4.8 -13.4°
Maximum altitude 03:11:05 51° 11° (NNE) 524 3.7 -13.0°
Drops below altitude 10° 03:14:20 10° 90° (E) 1,477 7.2 -12.5°
Sets 03:16:27 0° 95° (E) 2,334 8.4 -12.2°
